User: anonymous   Login
Location: Unspecified
(0.0000°N, 0.0000°E)
Time: 19:21:30
(UTC+00:00)
Language:

SAUDISAT 4 - Orbit

View from above orbital plane
View from above orbital plane
View from above satellite
View from above satellite

Ground track
Ground track

The orbit data is extracted from the following two-line orbital elements,

1 40016U 14033G   19077.67170219  .00000032  00000-0  12086-4 0  9995
2 40016  97.7775 313.7392 0049014  25.5442 334.8174 14.75228472255434
Epoch (UTC): 18 March 2019 16:07:15
Eccentricity: 0.0049014
inclination: 97.7775°
perigee height: 610 km
apogee height: 679 km
right ascension of ascending node: 313.7392°
argument of perigee: 25.5442°
revolutions per day: 14.75228472
mean anomaly at epoch: 334.8174°
orbit number at epoch: 25543

The dashed part of the orbit path shows where the satellite is in the earth's shadow,  

DLR